�������l�o���
Date,Time,MP-1(��Sv/h),MP-2(��Sv/h),MP-3(��Sv/h),MP-4(��Sv/h),MP-5(��Sv/h),MP-6(��Sv/h),MP-7(��Sv/h),MP-8(��Sv/h),����,����(m/s),���J
2023/12/24,00:00,0.510,0.779,0.483,0.976,0.697,0.311,0.560,0.524,�k�k��,1.1,��
2023/12/24,00:10,0.512,0.778,0.485,0.978,0.699,0.311,0.559,0.525,�k�k��,1.9,��
2023/12/24,00:20,0.512,0.779,0.483,0.978,0.698,0.312,0.558,0.524,�k�k��,1.7,��
2023/12/24,00:30,0.511,0.776,0.483,0.978,0.699,0.312,0.558,0.526,�k�k��,2.5,��
2023/12/24,00:40,0.512,0.779,0.484,0.977,0.700,0.313,0.558,0.524,�k�k��,2.5,��
2023/12/24,00:50,0.510,0.777,0.483,0.978,0.701,0.311,0.559,0.527,�k�k��,3.0,��
2023/12/24,01:00,0.513,0.778,0.483,0.978,0.698,0.311,0.558,0.524,�k�k��,2.3,��
2023/12/24,01:10,0.511,0.777,0.484,0.979,0.698,0.311,0.556,0.525,�k�k��,2.2,��
2023/12/24,01:20,0.511,0.777,0.483,0.978,0.700,0.310,0.558,0.524,�k�k��,3.0,��
2023/12/24,01:30,0.510,0.777,0.483,0.978,0.698,0.312,0.559,0.524,�k�k��,1.2,��
2023/12/24,01:40,0.513,0.777,0.483,0.978,0.699,0.310,0.559,0.524,�k�k��,2.3,��
2023/12/24,01:50,0.511,0.778,0.483,0.979,0.698,0.312,0.559,0.525,�k�k��,3.2,��
2023/12/24,02:00,0.510,0.777,0.484,0.978,0.699,0.310,0.559,0.524,�k�k��,2.8,��
2023/12/24,02:10,0.512,0.776,0.483,0.977,0.700,0.311,0.559,0.524,�k�k��,3.4,��
2023/12/24,02:20,0.511,0.777,0.481,0.978,0.697,0.310,0.559,0.525,�k�k��,3.2,��
2023/12/24,02:30,0.510,0.776,0.485,0.978,0.697,0.311,0.558,0.526,�k��,3.1,��
2023/12/24,02:40,0.513,0.776,0.483,0.978,0.699,0.311,0.559,0.525,�k�k��,3.1,��
2023/12/24,02:50,0.511,0.776,0.482,0.977,0.699,0.311,0.559,0.525,�k�k��,3.3,��
2023/12/24,03:00,0.511,0.777,0.482,0.979,0.697,0.311,0.558,0.524,�k�k��,3.3,��
2023/12/24,03:10,0.511,0.777,0.482,0.977,0.699,0.310,0.559,0.524,�k�k��,3.1,��
2023/12/24,03:20,0.511,0.777,0.483,0.978,0.697,0.311,0.558,0.525,�k��,2.3,��
2023/12/24,03:30,0.511,0.778,0.484,0.978,0.697,0.312,0.560,0.525,�k��,2.0,��
2023/12/24,03:40,0.509,0.778,0.483,0.979,0.700,0.311,0.559,0.526,�k��,1.9,��
2023/12/24,03:50,0.510,0.778,0.483,0.979,0.698,0.311,0.559,0.526,���k��,2.0,��
2023/12/24,04:00,0.512,0.778,0.483,0.979,0.697,0.312,0.559,0.524,�k�k��,2.3,��
2023/12/24,04:10,0.512,0.777,0.481,0.980,0.697,0.311,0.559,0.523,���k��,2.0,��
2023/12/24,04:20,0.510,0.777,0.483,0.978,0.698,0.310,0.560,0.524,���쐼,2.3,��
2023/12/24,04:30,0.510,0.777,0.483,0.978,0.699,0.311,0.559,0.525,��,1.8,��
2023/12/24,04:40,0.510,0.777,0.484,0.978,0.696,0.311,0.558,0.524,�k��,3.2,��
2023/12/24,04:50,0.513,0.776,0.484,0.976,0.698,0.311,0.559,0.525,�k��,3.4,��
2023/12/24,05:00,0.512,0.777,0.483,0.977,0.698,0.311,0.559,0.524,�k��,3.9,��
2023/12/24,05:10,0.511,0.777,0.482,0.977,0.697,0.312,0.559,0.523,�k��,4.6,��
2023/12/24,05:20,0.510,0.776,0.483,0.978,0.697,0.311,0.558,0.524,�k��,4.7,��
2023/12/24,05:30,0.511,0.776,0.483,0.978,0.698,0.311,0.559,0.524,�k��,4.6,��
2023/12/24,05:40,0.512,0.777,0.484,0.982,0.698,0.311,0.559,0.524,�k��,4.0,��
2023/12/24,05:50,0.511,0.777,0.481,0.977,0.697,0.310,0.559,0.525,�k��,4.8,��
2023/12/24,06:00,0.511,0.778,0.484,0.978,0.697,0.310,0.559,0.525,�k��,7.0,��
2023/12/24,06:10,0.513,0.778,0.483,0.979,0.696,0.310,0.559,0.524,�k��,6.2,��
2023/12/24,06:20,0.512,0.777,0.482,0.980,0.697,0.309,0.557,0.526,�k��,6.3,��
2023/12/24,06:30,0.511,0.776,0.483,0.979,0.696,0.310,0.559,0.525,�k��,6.4,��
2023/12/24,06:40,0.511,0.778,0.483,0.981,0.699,0.310,0.559,0.525,�k��,5.7,��
2023/12/24,06:50,0.511,0.776,0.484,0.978,0.697,0.311,0.560,0.525,�k��,6.1,��
2023/12/24,07:00,0.512,0.779,0.484,0.978,0.696,0.310,0.558,0.525,�k��,5.6,��
2023/12/24,07:10,0.511,0.776,0.482,0.981,0.698,0.310,0.560,0.526,�k��,5.2,��
2023/12/24,07:20,0.512,0.778,0.482,0.979,0.698,0.312,0.559,0.526,�k��,4.4,��
2023/12/24,07:30,0.512,0.776,0.482,0.977,0.698,0.313,0.558,0.525,�k��,4.2,��
2023/12/24,07:40,0.512,0.778,0.483,0.979,0.696,0.310,0.560,0.525,�k��,3.5,��
2023/12/24,07:50,0.511,0.777,0.484,0.978,0.696,0.310,0.558,0.525,�k��,3.2,��
2023/12/24,08:00,0.511,0.774,0.484,0.977,0.698,0.312,0.560,0.526,���k��,3.5,��
2023/12/24,08:10,0.511,0.775,0.483,0.979,0.698,0.312,0.559,0.525,��,3.0,��
2023/12/24,08:20,0.512,0.777,0.482,0.977,0.698,0.312,0.559,0.526,���k��,2.0,��
2023/12/24,08:30,0.512,0.778,0.483,0.979,0.696,0.312,0.561,0.525,���k��,1.5,��
2023/12/24,08:40,0.513,0.778,0.483,0.980,0.698,0.311,0.558,0.526,��,1.8,��
2023/12/24,08:50,0.513,0.776,0.484,0.978,0.697,0.310,0.559,0.525,���k��,2.8,��
2023/12/24,09:00,0.514,0.780,0.483,0.978,0.697,0.312,0.561,0.526,���k��,3.1,��
2023/12/24,09:10,0.512,0.779,0.483,0.979,0.697,0.312,0.561,0.526,��,2.9,��
2023/12/24,09:20,0.512,0.779,0.484,0.980,0.697,0.312,0.561,0.525,���k��,2.5,��
2023/12/24,09:30,0.513,0.780,0.484,0.978,0.699,0.313,0.561,0.526,���k��,1.4,��
2023/12/24,09:40,0.512,0.777,0.484,0.980,0.698,0.312,0.562,0.525,�k��,2.0,��
2023/12/24,09:50,0.514,0.780,0.485,0.979,0.697,0.313,0.561,0.527,�k��,2.5,��
2023/12/24,10:00,0.513,0.779,0.485,0.980,0.698,0.312,0.559,0.526,�k�k��,3.2,��
2023/12/24,10:10,0.515,0.779,0.484,0.981,0.699,0.312,0.559,0.525,�k�k��,2.3,��
2023/12/24,10:20,0.514,0.779,0.485,0.980,0.699,0.311,0.559,0.525,�k,1.8,��
2023/12/24,10:30,0.515,0.778,0.483,0.978,0.699,0.312,0.558,0.526,�k�k��,2.6,��
2023/12/24,10:40,0.514,0.778,0.485,0.981,0.699,0.312,0.562,0.527,�k�k��,2.3,��
2023/12/24,10:50,0.513,0.777,0.486,0.981,0.700,0.313,0.560,0.525,�k��,2.3,��
2023/12/24,11:00,0.513,0.777,0.486,0.982,0.701,0.312,0.560,0.528,�k��,2.0,��
2023/12/24,11:10,0.513,0.776,0.485,0.980,0.703,0.313,0.559,0.526,�k��,2.3,��
2023/12/24,11:20,0.515,0.775,0.486,0.980,0.701,0.313,0.558,0.526,���k��,1.9,��
2023/12/24,11:30,0.515,0.777,0.486,0.982,0.700,0.313,0.559,0.525,���쓌,1.9,��
2023/12/24,11:40,0.515,0.778,0.485,0.980,0.702,0.313,0.559,0.526,���쓌,1.7,��
2023/12/24,11:50,0.513,0.779,0.485,0.981,0.701,0.311,0.558,0.526,�쓌,1.9,��
2023/12/24,12:00,0.514,0.781,0.486,0.982,0.699,0.311,0.559,0.526,��쓌,2.5,��
2023/12/24,12:10,0.513,0.778,0.486,0.982,0.701,0.312,0.561,0.526,��쓌,2.5,��
2023/12/24,12:20,0.515,0.780,0.487,0.981,0.702,0.313,0.562,0.528,��쓌,3.2,��
2023/12/24,12:30,0.514,0.781,0.486,0.981,0.702,0.313,0.559,0.527,��쓌,3.0,��
2023/12/24,12:40,0.514,0.780,0.486,0.979,0.702,0.314,0.558,0.527,��쓌,2.6,��
2023/12/24,12:50,0.514,0.782,0.486,0.983,0.702,0.313,0.560,0.526,��쓌,2.8,��
2023/12/24,13:00,0.514,0.782,0.486,0.980,0.701,0.314,0.561,0.525,��,3.0,��
2023/12/24,13:10,0.514,0.779,0.486,0.979,0.701,0.313,0.559,0.525,��,2.3,��
2023/12/24,13:20,0.513,0.781,0.486,0.979,0.700,0.313,0.561,0.526,��,1.9,��
2023/12/24,13:30,0.514,0.782,0.488,0.980,0.702,0.313,0.561,0.526,��,2.0,��
2023/12/24,13:40,0.516,0.780,0.485,0.981,0.701,0.312,0.560,0.526,��,2.6,��
2023/12/24,13:50,0.514,0.781,0.487,0.979,0.702,0.315,0.561,0.526,��,3.3,��
2023/12/24,14:00,0.514,0.780,0.486,0.982,0.702,0.314,0.561,0.527,��,2.6,��
2023/12/24,14:10,0.514,0.782,0.487,0.980,0.702,0.312,0.561,0.526,��,3.0,��
2023/12/24,14:20,0.516,0.781,0.487,0.979,0.701,0.313,0.560,0.526,��,3.5,��
2023/12/24,14:30,0.515,0.781,0.486,0.981,0.702,0.315,0.561,0.526,��,3.0,��
2023/12/24,14:40,0.514,0.781,0.487,0.981,0.700,0.314,0.561,0.527,��,3.6,��
2023/12/24,14:50,0.514,0.781,0.488,0.981,0.703,0.313,0.559,0.526,��쐼,3.6,��
2023/12/24,15:00,0.515,0.782,0.488,0.980,0.701,0.313,0.560,0.527,��쐼,3.5,��
2023/12/24,15:10,0.514,0.782,0.487,0.980,0.703,0.313,0.561,0.527,��,3.9,��
2023/12/24,15:20,0.513,0.781,0.487,0.981,0.703,0.314,0.561,0.526,��,3.8,��
2023/12/24,15:30,0.515,0.780,0.487,0.981,0.700,0.313,0.561,0.525,��,3.6,��
2023/12/24,15:40,0.514,0.780,0.487,0.982,0.704,0.314,0.561,0.526,��,4.8,��
2023/12/24,15:50,0.514,0.782,0.487,0.981,0.703,0.314,0.562,0.526,��,4.9,��
2023/12/24,16:00,0.514,0.782,0.488,0.980,0.701,0.313,0.561,0.527,��,5.1,��
2023/12/24,16:10,0.516,0.782,0.487,0.979,0.702,0.314,0.561,0.527,��쐼,5.9,��
2023/12/24,16:20,0.515,0.782,0.485,0.982,0.702,0.314,0.561,0.525,��쐼,5.8,��
2023/12/24,16:30,0.514,0.780,0.487,0.981,0.702,0.313,0.561,0.527,��쐼,5.8,��
2023/12/24,16:40,0.515,0.782,0.486,0.982,0.703,0.313,0.562,0.526,��쐼,6.4,��
2023/12/24,16:50,0.516,0.780,0.486,0.980,0.702,0.313,0.562,0.526,��쐼,6.1,��
2023/12/24,17:00,0.515,0.781,0.487,0.981,0.702,0.313,0.561,0.525,��쐼,5.3,��
2023/12/24,17:10,0.514,0.781,0.485,0.981,0.702,0.314,0.561,0.526,��쐼,5.3,��
2023/12/24,17:20,0.515,0.783,0.487,0.983,0.703,0.314,0.562,0.526,��쐼,4.6,��
2023/12/24,17:30,0.516,0.781,0.485,0.981,0.701,0.314,0.560,0.526,��쐼,4.0,�L
2023/12/24,17:40,0.514,0.781,0.486,0.980,0.702,0.314,0.561,0.526,��쐼,5.8,��
2023/12/24,17:50,0.513,0.779,0.486,0.981,0.703,0.311,0.562,0.526,��쐼,6.4,��
2023/12/24,18:00,0.514,0.781,0.486,0.983,0.704,0.315,0.563,0.526,��쐼,6.5,��
2023/12/24,18:10,0.514,0.782,0.486,0.979,0.702,0.312,0.562,0.525,��쐼,5.4,��
2023/12/24,18:20,0.514,0.782,0.487,0.981,0.702,0.313,0.561,0.526,��쐼,3.7,��
2023/12/24,18:30,0.513,0.781,0.487,0.982,0.702,0.313,0.560,0.527,���쐼,2.5,��
2023/12/24,18:40,0.514,0.780,0.486,0.982,0.702,0.314,0.561,0.526,���쐼,2.3,��
2023/12/24,18:50,0.515,0.778,0.486,0.978,0.702,0.313,0.561,0.526,�쐼,2.6,��
2023/12/24,19:00,0.512,0.778,0.485,0.980,0.701,0.312,0.561,0.527,���쐼,3.0,��
2023/12/24,19:10,0.515,0.781,0.487,0.982,0.703,0.313,0.562,0.526,���쐼,3.0,��
2023/12/24,19:20,0.515,0.779,0.487,0.980,0.699,0.314,0.561,0.526,���쐼,3.0,��
2023/12/24,19:30,0.512,0.779,0.487,0.980,0.702,0.314,0.563,0.525,���쐼,3.8,��
2023/12/24,19:40,0.514,0.781,0.486,0.982,0.702,0.314,0.560,0.527,���쐼,4.1,��
2023/12/24,19:50,0.515,0.780,0.486,0.981,0.703,0.313,0.561,0.527,���쐼,4.6,��
2023/12/24,20:00,0.515,0.780,0.486,0.983,0.702,0.313,0.561,0.525,���쐼,4.8,��
2023/12/24,20:10,0.514,0.781,0.485,0.982,0.703,0.313,0.561,0.525,���쐼,4.7,��
2023/12/24,20:20,0.515,0.781,0.488,0.982,0.702,0.313,0.562,0.526,���쐼,5.7,��
2023/12/24,20:30,0.514,0.781,0.487,0.982,0.702,0.314,0.562,0.527,���쐼,6.2,��
2023/12/24,20:40,0.514,0.780,0.486,0.983,0.703,0.314,0.561,0.526,�쐼,6.2,��
2023/12/24,20:50,0.514,0.781,0.486,0.980,0.702,0.313,0.562,0.526,�쐼,5.9,��
2023/12/24,21:00,0.513,0.780,0.487,0.981,0.704,0.315,0.563,0.526,�쐼,4.8,��
2023/12/24,21:10,0.514,0.780,0.486,0.980,0.702,0.314,0.561,0.527,�쐼,4.1,��
2023/12/24,21:20,0.515,0.780,0.486,0.983,0.703,0.314,0.562,0.525,�쐼,3.5,��
2023/12/24,21:30,0.515,0.780,0.488,0.981,0.702,0.312,0.561,0.526,���쐼,4.5,��
2023/12/24,21:40,0.515,0.781,0.486,0.982,0.701,0.312,0.562,0.527,���쐼,6.7,��
2023/12/24,21:50,0.516,0.780,0.487,0.982,0.701,0.314,0.562,0.526,��,8.0,��
2023/12/24,22:00,0.514,0.780,0.486,0.981,0.702,0.314,0.562,0.527,��,7.9,��
2023/12/24,22:10,0.515,0.780,0.486,0.981,0.700,0.313,0.562,0.526,��,6.7,��
2023/12/24,22:20,0.515,0.779,0.487,0.983,0.702,0.313,0.563,0.528,��,5.9,��
2023/12/24,22:30,0.513,0.781,0.487,0.981,0.701,0.313,0.561,0.527,���쐼,5.6,��
2023/12/24,22:40,0.515,0.780,0.487,0.981,0.701,0.315,0.562,0.528,���쐼,7.4,��
2023/12/24,22:50,0.515,0.777,0.486,0.982,0.702,0.315,0.561,0.526,���쐼,7.1,��
2023/12/24,23:00,0.515,0.779,0.487,0.984,0.703,0.316,0.562,0.527,���쐼,5.6,��
2023/12/24,23:10,0.515,0.781,0.486,0.983,0.702,0.313,0.562,0.526,��,6.0,��
2023/12/24,23:20,0.514,0.780,0.487,0.982,0.700,0.313,0.564,0.527,��,4.2,��
2023/12/24,23:30,0.514,0.769,0.488,0.981,0.701,0.314,0.562,0.525,��,3.1,��
2023/12/24,23:40,0.514,0.767,0.486,0.984,0.702,0.313,0.562,0.526,���k��,5.6,��
2023/12/24,23:50,0.513,0.770,0.488,0.982,0.700,0.314,0.562,0.528,�k�k��,2.9,��
